Time,TemperatureF,DewpointF,PressureIn,WindDirection,WindDirectionDegrees,WindSpeedMPH,WindSpeedGustMPH,Humidity,HourlyPrecipIn,Conditions,Clouds,dailyrainin,SoftwareType,DateUTC
2013-08-27 00:00:00,61.8,59.5,30.18,WNW,285,0.0,0.0,92,0.00,,,0.00,Wunderground v.1.15,2013-08-27 04:00:00,
2013-08-27 00:05:00,61.8,59.5,30.18,WNW,285,0.0,0.0,92,0.00,,,0.00,Wunderground v.1.15,2013-08-27 04:05:00,
2013-08-27 00:10:00,61.7,59.4,30.18,WNW,285,0.0,0.0,92,0.00,,,0.00,Wunderground v.1.15,2013-08-27 04:10:00,
2013-08-27 00:15:00,61.6,59.3,30.18,WNW,285,0.0,0.0,92,0.00,,,0.00,Wunderground v.1.15,2013-08-27 04:15:00,
2013-08-27 00:25:00,61.4,59.1,30.17,WNW,285,0.0,0.0,92,0.00,,,0.00,Wunderground v.1.15,2013-08-27 04:25:00,
2013-08-27 00:30:00,61.4,59.1,30.17,WNW,285,0.0,0.0,92,0.00,,,0.00,Wunderground v.1.15,2013-08-27 04:30:00,
2013-08-27 00:40:00,61.2,58.9,30.17,WNW,285,0.0,0.0,92,0.00,,,0.00,Wunderground v.1.15,2013-08-27 04:40:00,
2013-08-27 00:45:00,61.1,59.1,30.17,WNW,285,0.0,0.0,93,0.00,,,0.00,Wunderground v.1.15,2013-08-27 04:45:00,
2013-08-27 00:50:00,61.0,59.0,30.17,WNW,285,0.0,0.0,93,0.00,,,0.00,Wunderground v.1.15,2013-08-27 04:50:00,
2013-08-27 00:55:00,60.9,58.6,30.17,WNW,285,0.0,0.0,92,0.00,,,0.00,Wunderground v.1.15,2013-08-27 04:55:00,
2013-08-27 01:00:00,60.9,58.6,30.17,WNW,285,0.0,0.0,92,0.00,,,0.00,Wunderground v.1.15,2013-08-27 05:00:00,
2013-08-27 01:10:00,60.7,58.7,30.17,WNW,285,0.0,0.0,93,0.00,,,0.00,Wunderground v.1.15,2013-08-27 05:10:00,
2013-08-27 01:15:00,60.7,58.7,30.16,WNW,285,0.0,0.0,93,0.00,,,0.00,Wunderground v.1.15,2013-08-27 05:15:00,
2013-08-27 01:25:00,60.6,58.6,30.16,WNW,285,0.0,0.0,93,0.00,,,0.00,Wunderground v.1.15,2013-08-27 05:25:00,
2013-08-27 01:30:00,60.7,58.7,30.16,WNW,285,0.0,0.0,93,0.00,,,0.00,Wunderground v.1.15,2013-08-27 05:30:00,
2013-08-27 01:35:00,60.7,58.7,30.16,WNW,285,0.0,0.0,93,0.00,,,0.00,Wunderground v.1.15,2013-08-27 05:35:00,
2013-08-27 01:40:00,60.7,58.7,30.16,WNW,285,0.0,0.0,93,0.00,,,0.00,Wunderground v.1.15,2013-08-27 05:40:00,
2013-08-27 01:45:00,60.7,58.7,30.16,WNW,285,0.0,0.0,93,0.00,,,0.00,Wunderground v.1.15,2013-08-27 05:45:00,
2013-08-27 01:55:00,60.9,58.9,30.15,WNW,284,0.0,0.0,93,0.00,,,0.00,Wunderground v.1.15,2013-08-27 05:55:00,
2013-08-27 02:00:00,61.1,59.1,30.15,WNW,285,0.0,0.0,93,0.00,,,0.00,Wunderground v.1.15,2013-08-27 06:00:00,
2013-08-27 02:10:00,61.3,59.3,30.15,WNW,285,0.0,0.0,93,0.00,,,0.00,Wunderground v.1.15,2013-08-27 06:10:00,
2013-08-27 02:15:00,61.4,59.4,30.15,WNW,285,0.0,0.0,93,0.00,,,0.00,Wunderground v.1.15,2013-08-27 06:15:00,
2013-08-27 02:20:00,61.6,59.6,30.15,WNW,285,0.0,0.0,93,0.00,,,0.00,Wunderground v.1.15,2013-08-27 06:20:00,
2013-08-27 02:25:00,61.7,59.7,30.15,WNW,285,0.0,0.0,93,0.00,,,0.00,Wunderground v.1.15,2013-08-27 06:25:00,
2013-08-27 02:30:00,61.8,59.8,30.15,WNW,285,0.0,0.0,93,0.00,,,0.00,Wunderground v.1.15,2013-08-27 06:30:00,
2013-08-27 02:40:00,61.9,60.2,30.15,WNW,285,0.0,0.0,94,0.00,,,0.00,Wunderground v.1.15,2013-08-27 06:40:00,
2013-08-27 02:45:00,62.0,60.3,30.15,WNW,285,0.0,0.0,94,0.00,,,0.00,Wunderground v.1.15,2013-08-27 06:45:00,
2013-08-27 02:55:00,62.1,60.4,30.15,WNW,285,0.0,0.0,94,0.00,,,0.00,Wunderground v.1.15,2013-08-27 06:55:00,
2013-08-27 03:00:00,62.2,60.5,30.15,WNW,285,0.0,0.0,94,0.00,,,0.00,Wunderground v.1.15,2013-08-27 07:00:00,
2013-08-27 03:05:00,62.2,60.5,30.15,WNW,285,0.0,0.0,94,0.00,,,0.00,Wunderground v.1.15,2013-08-27 07:05:00,
2013-08-27 03:10:00,62.2,60.5,30.15,WNW,285,0.0,0.0,94,0.00,,,0.00,Wunderground v.1.15,2013-08-27 07:10:00,
2013-08-27 03:15:00,62.1,60.4,30.15,WNW,285,0.0,0.0,94,0.00,,,0.00,Wunderground v.1.15,2013-08-27 07:15:00,
2013-08-27 03:25:00,62.0,60.3,30.15,WNW,285,0.0,0.0,94,0.00,,,0.00,Wunderground v.1.15,2013-08-27 07:25:00,
2013-08-27 03:30:00,61.9,60.2,30.15,WNW,285,0.0,0.0,94,0.00,,,0.00,Wunderground v.1.15,2013-08-27 07:30:00,
2013-08-27 03:40:00,61.8,59.8,30.15,WNW,285,0.0,0.0,93,0.00,,,0.00,Wunderground v.1.15,2013-08-27 07:40:00,
2013-08-27 03:45:00,61.7,59.7,30.15,WNW,285,0.0,0.0,93,0.00,,,0.00,Wunderground v.1.15,2013-08-27 07:45:00,
2013-08-27 03:50:00,61.7,59.7,30.14,WNW,285,0.0,0.0,93,0.00,,,0.00,Wunderground v.1.15,2013-08-27 07:50:00,
2013-08-27 03:55:00,61.7,59.7,30.15,WNW,285,0.0,0.0,93,0.00,,,0.00,Wunderground v.1.15,2013-08-27 07:55:00,
2013-08-27 04:00:00,61.7,60.0,30.15,WNW,285,0.0,0.0,94,0.00,,,0.00,Wunderground v.1.15,2013-08-27 08:00:00,
2013-08-27 04:10:00,61.7,60.0,30.15,WNW,285,0.0,0.0,94,0.00,,,0.00,Wunderground v.1.15,2013-08-27 08:10:00,
2013-08-27 04:20:00,61.8,60.1,30.14,WNW,285,0.0,0.0,94,0.00,,,0.00,Wunderground v.1.15,2013-08-27 08:20:00,
2013-08-27 04:25:00,61.8,60.1,30.14,WNW,285,0.0,0.0,94,0.00,,,0.00,Wunderground v.1.15,2013-08-27 08:25:00,
2013-08-27 04:30:00,61.8,60.1,30.14,WNW,285,0.0,0.0,94,0.00,,,0.00,Wunderground v.1.15,2013-08-27 08:30:00,
2013-08-27 04:35:00,61.8,60.1,30.14,WNW,285,0.0,0.0,94,0.00,,,0.00,Wunderground v.1.15,2013-08-27 08:35:00,
2013-08-27 04:40:00,61.9,60.2,30.14,WNW,285,0.0,0.0,94,0.00,,,0.00,Wunderground v.1.15,2013-08-27 08:40:00,
2013-08-27 04:45:00,61.9,60.2,30.14,WNW,285,0.0,0.0,94,0.00,,,0.00,Wunderground v.1.15,2013-08-27 08:45:00,
2013-08-27 04:55:00,62.0,60.3,30.14,WNW,285,0.0,0.0,94,0.00,,,0.01,Wunderground v.1.15,2013-08-27 08:55:00,
2013-08-27 05:00:00,62.0,60.3,30.14,WNW,285,0.0,0.0,94,0.00,,,0.01,Wunderground v.1.15,2013-08-27 09:00:00,
2013-08-27 05:10:00,62.0,60.3,30.14,WNW,285,0.0,0.0,94,0.00,,,0.01,Wunderground v.1.15,2013-08-27 09:10:00,
2013-08-27 05:15:00,62.0,60.3,30.14,WNW,285,0.0,0.0,94,0.00,,,0.01,Wunderground v.1.15,2013-08-27 09:15:00,
2013-08-27 05:25:00,62.0,60.3,30.13,WNW,285,0.0,0.0,94,0.00,,,0.01,Wunderground v.1.15,2013-08-27 09:25:00,
2013-08-27 05:35:00,62.0,60.3,30.13,WNW,285,0.0,0.0,94,0.00,,,0.01,Wunderground v.1.15,2013-08-27 09:35:00,
2013-08-27 05:40:00,62.0,60.3,30.14,WNW,285,0.0,0.0,94,0.00,,,0.01,Wunderground v.1.15,2013-08-27 09:40:00,
2013-08-27 05:45:00,62.1,60.4,30.14,WNW,285,0.0,0.0,94,0.00,,,0.01,Wunderground v.1.15,2013-08-27 09:45:00,
2013-08-27 05:55:00,62.2,60.5,30.14,WNW,285,0.0,0.0,94,0.00,,,0.01,Wunderground v.1.15,2013-08-27 09:55:00,
2013-08-27 06:00:00,62.2,60.5,30.14,WNW,285,0.0,0.0,94,0.00,,,0.01,Wunderground v.1.15,2013-08-27 10:00:00,
2013-08-27 06:10:00,62.1,60.4,30.14,WNW,285,0.0,0.0,94,0.00,,,0.01,Wunderground v.1.15,2013-08-27 10:10:00,
2013-08-27 06:15:00,62.1,60.4,30.14,WNW,285,0.0,0.0,94,0.00,,,0.01,Wunderground v.1.15,2013-08-27 10:15:00,
2013-08-27 06:20:00,62.1,60.4,30.14,WNW,285,0.0,0.0,94,0.00,,,0.01,Wunderground v.1.15,2013-08-27 10:20:00,
2013-08-27 06:25:00,62.1,60.4,30.14,WNW,285,0.0,0.0,94,0.00,,,0.01,Wunderground v.1.15,2013-08-27 10:25:00,
2013-08-27 06:30:00,62.1,60.4,30.14,WNW,285,0.0,0.0,94,0.00,,,0.01,Wunderground v.1.15,2013-08-27 10:30:00,
2013-08-27 06:40:00,62.1,60.4,30.14,WNW,285,0.0,0.0,94,0.00,,,0.01,Wunderground v.1.15,2013-08-27 10:40:00,
2013-08-27 06:45:00,62.0,60.3,30.14,WNW,285,0.0,0.0,94,0.00,,,0.01,Wunderground v.1.15,2013-08-27 10:45:00,
2013-08-27 06:55:00,62.1,60.4,30.15,WNW,285,0.0,0.0,94,0.00,,,0.01,Wunderground v.1.15,2013-08-27 10:55:00,
2013-08-27 07:00:00,62.1,60.4,30.15,WNW,285,0.0,0.0,94,0.00,,,0.01,Wunderground v.1.15,2013-08-27 11:00:00,
2013-08-27 07:05:00,62.2,60.5,30.15,WNW,285,0.0,0.0,94,0.00,,,0.01,Wunderground v.1.15,2013-08-27 11:05:00,
2013-08-27 07:10:00,62.2,60.5,30.14,WNW,285,0.0,0.0,94,0.00,,,0.01,Wunderground v.1.15,2013-08-27 11:10:00,
2013-08-27 07:15:00,62.3,60.6,30.14,WNW,285,0.0,0.0,94,0.00,,,0.01,Wunderground v.1.15,2013-08-27 11:15:00,
2013-08-27 07:25:00,62.3,60.6,30.14,WNW,285,0.0,0.0,94,0.00,,,0.01,Wunderground v.1.15,2013-08-27 11:25:00,
2013-08-27 07:30:00,62.4,60.7,30.14,WNW,285,0.0,0.0,94,0.00,,,0.01,Wunderground v.1.15,2013-08-27 11:30:00,
2013-08-27 07:40:00,62.6,60.8,30.14,WNW,285,0.0,0.0,94,0.00,,,0.01,Wunderground v.1.15,2013-08-27 11:40:00,
2013-08-27 07:45:00,62.7,60.9,30.14,WNW,285,0.0,0.0,94,0.00,,,0.01,Wunderground v.1.15,2013-08-27 11:45:00,
2013-08-27 07:55:00,62.9,61.1,30.14,WNW,285,0.0,0.0,94,0.00,,,0.01,Wunderground v.1.15,2013-08-27 11:55:00,
2013-08-27 08:00:00,63.0,61.2,30.14,WNW,285,0.0,0.0,94,0.00,,,0.01,Wunderground v.1.15,2013-08-27 12:00:00,
2013-08-27 08:10:00,63.2,61.4,30.14,WNW,285,0.0,0.0,94,0.00,,,0.01,Wunderground v.1.15,2013-08-27 12:10:00,
2013-08-27 08:15:00,63.3,61.5,30.14,WNW,285,0.0,0.0,94,0.00,,,0.01,Wunderground v.1.15,2013-08-27 12:15:00,
2013-08-27 08:25:00,63.7,61.9,30.14,WNW,285,0.0,0.0,94,0.00,,,0.01,Wunderground v.1.15,2013-08-27 12:25:00,
2013-08-27 08:30:00,63.9,62.1,30.14,WNW,285,0.0,0.0,94,0.00,,,0.01,Wunderground v.1.15,2013-08-27 12:30:00,
2013-08-27 08:40:00,64.3,62.5,30.14,WNW,285,0.0,0.0,94,0.00,,,0.01,Wunderground v.1.15,2013-08-27 12:40:00,
2013-08-27 08:45:00,64.3,62.5,30.14,WNW,285,0.0,0.0,94,0.00,,,0.01,Wunderground v.1.15,2013-08-27 12:45:00,
2013-08-27 08:50:00,64.4,62.6,30.14,WNW,285,0.0,0.0,94,0.00,,,0.01,Wunderground v.1.15,2013-08-27 12:50:00,
2013-08-27 08:55:00,64.6,62.8,30.14,WNW,285,0.0,0.0,94,0.00,,,0.01,Wunderground v.1.15,2013-08-27 12:55:00,
2013-08-27 09:00:00,65.0,63.2,30.14,WNW,285,0.0,0.0,94,0.00,,,0.01,Wunderground v.1.15,2013-08-27 13:00:00,
2013-08-27 09:10:00,65.7,63.9,30.14,WNW,285,0.0,0.0,94,0.00,,,0.01,Wunderground v.1.15,2013-08-27 13:10:00,
2013-08-27 09:15:00,66.1,64.3,30.14,WNW,285,0.0,0.0,94,0.00,,,0.01,Wunderground v.1.15,2013-08-27 13:15:00,
2013-08-27 09:25:00,66.7,64.9,30.13,WNW,285,0.0,0.0,94,0.00,,,0.01,Wunderground v.1.15,2013-08-27 13:25:00,
2013-08-27 09:30:00,67.0,65.2,30.13,WNW,285,0.0,0.0,94,0.00,,,0.01,Wunderground v.1.15,2013-08-27 13:30:00,
2013-08-27 09:35:00,67.2,65.4,30.13,SSW,199,0.0,3.0,94,0.00,,,0.01,Wunderground v.1.15,2013-08-27 13:35:00,
2013-08-27 09:40:00,67.2,65.4,30.13,South,181,0.0,0.0,94,0.00,,,0.01,Wunderground v.1.15,2013-08-27 13:40:00,
2013-08-27 09:50:00,67.7,65.9,30.13,South,181,0.0,0.0,94,0.00,,,0.01,Wunderground v.1.15,2013-08-27 13:50:00,
2013-08-27 09:55:00,67.9,66.1,30.13,South,181,0.0,0.0,94,0.00,,,0.01,Wunderground v.1.15,2013-08-27 13:55:00,
2013-08-27 10:00:00,68.1,66.3,30.13,South,181,0.0,0.0,94,0.00,,,0.01,Wunderground v.1.15,2013-08-27 14:00:00,
2013-08-27 10:10:00,69.2,67.1,30.13,South,181,0.0,0.0,93,0.00,,,0.01,Wunderground v.1.15,2013-08-27 14:10:00,
2013-08-27 10:15:00,69.7,67.3,30.14,South,181,0.0,0.0,92,0.00,,,0.01,Wunderground v.1.15,2013-08-27 14:15:00,
2013-08-27 10:25:00,70.6,68.2,30.13,WNW,286,0.0,0.0,92,0.00,,,0.01,Wunderground v.1.15,2013-08-27 14:25:00,
2013-08-27 10:30:00,70.9,68.1,30.13,WNW,286,0.0,0.0,91,0.00,,,0.01,Wunderground v.1.15,2013-08-27 14:30:00,
2013-08-27 10:40:00,71.5,68.4,30.13,WNW,301,0.0,0.0,90,0.00,,,0.01,Wunderground v.1.15,2013-08-27 14:40:00,
2013-08-27 10:45:00,71.9,68.8,30.13,West,276,0.0,0.0,90,0.00,,,0.01,Wunderground v.1.15,2013-08-27 14:45:00,
2013-08-27 10:55:00,72.6,69.2,30.13,NW,314,1.0,1.0,89,0.00,,,0.01,Wunderground v.1.15,2013-08-27 14:55:00,
2013-08-27 11:00:00,73.1,69.0,30.13,WNW,302,2.0,2.0,87,0.00,,,0.01,Wunderground v.1.15,2013-08-27 15:00:00,
2013-08-27 11:05:00,73.5,68.7,30.12,NE,34,3.0,3.0,85,0.00,,,0.01,Wunderground v.1.15,2013-08-27 15:05:00,
2013-08-27 11:10:00,73.9,69.1,30.12,NW,321,2.0,3.0,85,0.00,,,0.01,Wunderground v.1.15,2013-08-27 15:10:00,
2013-08-27 11:20:00,74.4,69.9,30.12,NW,304,2.0,2.0,86,0.00,,,0.01,Wunderground v.1.15,2013-08-27 15:20:00,
2013-08-27 11:25:00,75.0,69.8,30.12,NW,315,1.0,2.0,84,0.00,,,0.01,Wunderground v.1.15,2013-08-27 15:25:00,
2013-08-27 11:30:00,75.5,70.3,30.12,WNW,292,1.0,1.0,84,0.00,,,0.01,Wunderground v.1.15,2013-08-27 15:30:00,
2013-08-27 11:40:00,75.6,70.4,30.12,NNW,341,1.0,3.0,84,0.00,,,0.01,Wunderground v.1.15,2013-08-27 15:40:00,
2013-08-27 11:45:00,75.1,69.6,30.12,NNW,338,2.0,3.0,83,0.00,,,0.01,Wunderground v.1.15,2013-08-27 15:45:00,
2013-08-27 11:55:00,74.6,69.8,30.12,NNW,329,3.0,6.0,85,0.00,,,0.01,Wunderground v.1.15,2013-08-27 15:55:00,
2013-08-27 12:00:00,74.8,70.0,30.12,WNW,288,2.0,2.0,85,0.00,,,0.01,Wunderground v.1.15,2013-08-27 16:00:00,
2013-08-27 12:05:00,75.0,70.2,30.12,WNW,303,2.0,4.0,85,0.00,,,0.01,Wunderground v.1.15,2013-08-27 16:05:00,
2013-08-27 12:10:00,75.0,69.5,30.12,WNW,282,3.0,3.0,83,0.00,,,0.01,Wunderground v.1.15,2013-08-27 16:10:00,
2013-08-27 12:20:00,74.5,69.3,30.12,West,277,3.0,5.0,84,0.00,,,0.01,Wunderground v.1.15,2013-08-27 16:20:00,
2013-08-27 12:25:00,74.3,69.1,30.12,West,280,3.0,5.0,84,0.00,,,0.01,Wunderground v.1.15,2013-08-27 16:25:00,
2013-08-27 12:30:00,74.2,69.7,30.12,West,277,2.0,2.0,86,0.00,,,0.01,Wunderground v.1.15,2013-08-27 16:30:00,
2013-08-27 12:40:00,73.9,69.4,30.12,WNW,285,0.0,0.0,86,0.00,,,0.01,Wunderground v.1.15,2013-08-27 16:40:00,
2013-08-27 12:45:00,74.3,70.2,30.11,WNW,285,0.0,0.0,87,0.00,,,0.01,Wunderground v.1.15,2013-08-27 16:45:00,
2013-08-27 12:55:00,75.4,70.6,30.11,SSW,202,0.0,0.0,85,0.00,,,0.01,Wunderground v.1.15,2013-08-27 16:55:00,
2013-08-27 13:05:00,76.5,70.2,30.10,West,267,0.0,1.0,81,0.00,,,0.01,Wunderground v.1.15,2013-08-27 17:05:00,
2013-08-27 13:10:00,77.4,71.5,30.10,West,268,0.0,0.0,82,0.00,,,0.01,Wunderground v.1.15,2013-08-27 17:10:00,
2013-08-27 13:15:00,78.0,71.0,30.10,WNW,282,1.0,9.0,79,0.00,,,0.01,Wunderground v.1.15,2013-08-27 17:15:00,
2013-08-27 13:25:00,78.2,70.8,30.10,WSW,254,2.0,3.0,78,0.00,,,0.01,Wunderground v.1.15,2013-08-27 17:25:00,
2013-08-27 13:30:00,77.8,70.4,30.10,ESE,116,0.0,1.0,78,0.00,,,0.01,Wunderground v.1.15,2013-08-27 17:30:00,
2013-08-27 13:40:00,76.9,70.6,30.10,ESE,116,0.0,0.0,81,0.00,,,0.01,Wunderground v.1.15,2013-08-27 17:40:00,
2013-08-27 13:45:00,76.8,71.2,30.09,ESE,116,0.0,1.0,83,0.00,,,0.01,Wunderground v.1.15,2013-08-27 17:45:00,
2013-08-27 13:55:00,77.2,72.0,30.09,ESE,117,0.0,1.0,84,0.00,,,0.01,Wunderground v.1.15,2013-08-27 17:55:00,
2013-08-27 14:00:00,77.7,71.4,30.09,ESE,118,1.0,1.0,81,0.00,,,0.01,Wunderground v.1.15,2013-08-27 18:00:00,
2013-08-27 14:10:00,79.3,71.1,30.08,SE,128,1.0,1.0,76,0.00,,,0.01,Wunderground v.1.15,2013-08-27 18:10:00,
2013-08-27 14:15:00,79.2,71.0,30.08,SE,129,1.0,1.0,76,0.00,,,0.01,Wunderground v.1.15,2013-08-27 18:15:00,
2013-08-27 14:20:00,79.4,71.2,30.08,SE,129,0.0,0.0,76,0.00,,,0.01,Wunderground v.1.15,2013-08-27 18:20:00,
2013-08-27 14:25:00,79.9,70.9,30.08,NW,316,0.0,0.0,74,0.00,,,0.01,Wunderground v.1.15,2013-08-27 18:25:00,
2013-08-27 14:30:00,80.4,69.3,30.07,WNW,303,1.0,1.0,69,0.00,,,0.01,Wunderground v.1.15,2013-08-27 18:30:00,
2013-08-27 14:40:00,80.8,69.7,30.07,WNW,300,1.0,1.0,69,0.00,,,0.01,Wunderground v.1.15,2013-08-27 18:40:00,
2013-08-27 14:50:00,80.0,72.1,30.07,WNW,290,0.0,0.0,77,0.00,,,0.01,Wunderground v.1.15,2013-08-27 18:50:00,
2013-08-27 14:55:00,79.4,71.6,30.06,WNW,290,0.0,0.0,77,0.00,,,0.01,Wunderground v.1.15,2013-08-27 18:55:00,
2013-08-27 15:00:00,79.1,71.6,30.06,WNW,290,0.0,0.0,78,0.00,,,0.01,Wunderground v.1.15,2013-08-27 19:00:00,
2013-08-27 15:05:00,79.2,72.1,30.06,West,279,0.0,2.0,79,0.00,,,0.01,Wunderground v.1.15,2013-08-27 19:05:00,
2013-08-27 15:10:00,79.3,71.5,30.06,WNW,287,1.0,1.0,77,0.00,,,0.01,Wunderground v.1.15,2013-08-27 19:10:00,
2013-08-27 15:15:00,79.4,71.9,30.05,NW,309,1.0,8.0,78,0.00,,,0.01,Wunderground v.1.15,2013-08-27 19:15:00,
2013-08-27 15:25:00,79.8,72.3,30.05,NNW,333,2.0,3.0,78,0.00,,,0.01,Wunderground v.1.15,2013-08-27 19:25:00,
2013-08-27 15:30:00,80.1,71.5,30.05,NW,311,1.0,7.0,75,0.00,,,0.01,Wunderground v.1.15,2013-08-27 19:30:00,
2013-08-27 15:35:00,80.0,72.1,30.05,NNW,336,2.0,7.0,77,0.00,,,0.01,Wunderground v.1.15,2013-08-27 19:35:00,
2013-08-27 15:40:00,80.1,71.8,30.05,SSE,165,1.0,2.0,76,0.00,,,0.01,Wunderground v.1.15,2013-08-27 19:40:00,
2013-08-27 15:50:00,80.4,72.1,30.05,NNW,346,1.0,2.0,76,0.00,,,0.01,Wunderground v.1.15,2013-08-27 19:50:00,
2013-08-27 15:55:00,80.6,71.9,30.05,West,261,2.0,3.0,75,0.00,,,0.01,Wunderground v.1.15,2013-08-27 19:55:00,
2013-08-27 16:00:00,80.8,72.9,30.04,WNW,293,2.0,2.0,77,0.00,,,0.01,Wunderground v.1.15,2013-08-27 20:00:00,
2013-08-27 16:10:00,81.0,71.5,30.04,WNW,291,0.0,0.0,73,0.00,,,0.01,Wunderground v.1.15,2013-08-27 20:10:00,
2013-08-27 16:15:00,80.6,72.7,30.04,WNW,291,0.0,0.0,77,0.00,,,0.01,Wunderground v.1.15,2013-08-27 20:15:00,
2013-08-27 16:25:00,78.7,71.3,30.04,WNW,285,0.0,1.0,78,0.00,,,0.01,Wunderground v.1.15,2013-08-27 20:25:00,
2013-08-27 16:30:00,77.8,71.1,30.05,WNW,285,0.0,0.0,80,0.00,,,0.01,Wunderground v.1.15,2013-08-27 20:30:00,
2013-08-27 16:35:00,77.1,71.2,30.05,WNW,285,0.0,0.0,82,0.00,,,0.01,Wunderground v.1.15,2013-08-27 20:35:00,
2013-08-27 16:40:00,76.5,70.9,30.05,WNW,285,0.0,0.0,83,0.00,,,0.01,Wunderground v.1.15,2013-08-27 20:40:00,
2013-08-27 16:45:00,76.0,70.8,30.05,WNW,285,0.0,0.0,84,0.00,,,0.01,Wunderground v.1.15,2013-08-27 20:45:00,
2013-08-27 16:55:00,75.6,70.8,30.05,WNW,285,0.0,0.0,85,0.00,,,0.01,Wunderground v.1.15,2013-08-27 20:55:00,
2013-08-27 17:00:00,75.6,71.1,30.05,WNW,285,0.0,0.0,86,0.00,,,0.01,Wunderground v.1.15,2013-08-27 21:00:00,
2013-08-27 17:10:00,75.6,71.1,30.05,WNW,285,0.0,0.0,86,0.00,,,0.01,Wunderground v.1.15,2013-08-27 21:10:00,
2013-08-27 17:15:00,75.6,71.5,30.05,WNW,285,0.0,0.0,87,0.00,,,0.01,Wunderground v.1.15,2013-08-27 21:15:00,
2013-08-27 17:30:00,76.0,71.5,30.05,WNW,285,0.0,0.0,86,0.00,,,0.01,Wunderground v.1.15,2013-08-27 21:30:00,
2013-08-27 17:40:00,76.1,71.3,30.04,WNW,285,0.0,0.0,85,0.00,,,0.01,Wunderground v.1.15,2013-08-27 21:40:00,
2013-08-27 17:50:00,76.6,71.7,30.04,WNW,285,0.0,0.0,85,0.00,,,0.01,Wunderground v.1.15,2013-08-27 21:50:00,
2013-08-27 17:55:00,76.9,71.3,30.04,WNW,298,0.0,2.0,83,0.00,,,0.01,Wunderground v.1.15,2013-08-27 21:55:00,
2013-08-27 18:00:00,77.5,71.9,30.04,WNW,296,0.0,0.0,83,0.00,,,0.01,Wunderground v.1.15,2013-08-27 22:00:00,
2013-08-27 18:10:00,77.6,71.7,30.03,WNW,286,0.0,0.0,82,0.00,,,0.01,Wunderground v.1.15,2013-08-27 22:10:00,
2013-08-27 18:15:00,77.5,71.2,30.03,WNW,286,0.0,1.0,81,0.00,,,0.01,Wunderground v.1.15,2013-08-27 22:15:00,
2013-08-27 18:25:00,77.2,71.3,30.03,WNW,286,0.0,1.0,82,0.00,,,0.01,Wunderground v.1.15,2013-08-27 22:25:00,
2013-08-27 18:30:00,77.1,71.2,30.03,WNW,286,0.0,0.0,82,0.00,,,0.01,Wunderground v.1.15,2013-08-27 22:30:00,
2013-08-27 18:35:00,76.8,71.2,30.03,WNW,286,0.0,0.0,83,0.00,,,0.01,Wunderground v.1.15,2013-08-27 22:35:00,
2013-08-27 18:40:00,76.7,71.1,30.03,WNW,286,0.0,0.0,83,0.00,,,0.01,Wunderground v.1.15,2013-08-27 22:40:00,
2013-08-27 18:50:00,76.3,71.1,30.04,WNW,286,0.0,0.0,84,0.00,,,0.01,Wunderground v.1.15,2013-08-27 22:50:00,
2013-08-27 18:55:00,76.2,71.0,30.04,WNW,286,0.0,0.0,84,0.00,,,0.01,Wunderground v.1.15,2013-08-27 22:55:00,
2013-08-27 19:00:00,75.9,70.7,30.04,WNW,286,0.0,0.0,84,0.00,,,0.01,Wunderground v.1.15,2013-08-27 23:00:00,
2013-08-27 19:10:00,75.5,70.7,30.04,WNW,286,0.0,0.0,85,0.00,,,0.01,Wunderground v.1.15,2013-08-27 23:10:00,
2013-08-27 19:15:00,75.4,70.6,30.03,WNW,286,0.0,0.0,85,0.00,,,0.01,Wunderground v.1.15,2013-08-27 23:15:00,
2013-08-27 19:25:00,74.9,70.4,30.03,WNW,286,0.0,0.0,86,0.00,,,0.01,Wunderground v.1.15,2013-08-27 23:25:00,
2013-08-27 19:30:00,74.6,70.1,30.03,WNW,286,0.0,0.0,86,0.00,,,0.01,Wunderground v.1.15,2013-08-27 23:30:00,
2013-08-27 19:35:00,74.3,69.8,30.03,WNW,286,0.0,0.0,86,0.00,,,0.01,Wunderground v.1.15,2013-08-27 23:35:00,
2013-08-27 19:40:00,74.0,69.5,30.03,WNW,286,0.0,0.0,86,0.00,,,0.01,Wunderground v.1.15,2013-08-27 23:40:00,
2013-08-27 19:45:00,73.8,69.3,30.04,WNW,286,0.0,0.0,86,0.00,,,0.01,Wunderground v.1.15,2013-08-27 23:45:00,
2013-08-27 19:55:00,73.4,69.3,30.04,WNW,286,0.0,0.0,87,0.00,,,0.01,Wunderground v.1.15,2013-08-27 23:55:00,
2013-08-27 20:00:00,73.0,69.2,30.04,WNW,286,0.0,0.0,88,0.00,,,0.01,Wunderground v.1.15,2013-08-28 00:00:00,
2013-08-27 20:05:00,72.6,68.8,30.04,WNW,286,0.0,0.0,88,0.00,,,0.01,Wunderground v.1.15,2013-08-28 00:05:00,
2013-08-27 20:10:00,72.2,68.8,30.04,WNW,286,0.0,0.0,89,0.00,,,0.01,Wunderground v.1.15,2013-08-28 00:10:00,
2013-08-27 20:15:00,71.9,68.5,30.04,WNW,286,0.0,0.0,89,0.00,,,0.01,Wunderground v.1.15,2013-08-28 00:15:00,
2013-08-27 20:25:00,71.3,67.9,30.04,WNW,286,0.0,0.0,89,0.00,,,0.01,Wunderground v.1.15,2013-08-28 00:25:00,
2013-08-27 20:30:00,71.0,67.6,30.04,WNW,286,0.0,0.0,89,0.00,,,0.01,Wunderground v.1.15,2013-08-28 00:30:00,
2013-08-27 20:40:00,70.6,67.5,30.04,WNW,286,0.0,0.0,90,0.00,,,0.01,Wunderground v.1.15,2013-08-28 00:40:00,
2013-08-27 20:45:00,70.5,67.4,30.04,WNW,286,0.0,0.0,90,0.00,,,0.01,Wunderground v.1.15,2013-08-28 00:45:00,
2013-08-27 20:50:00,70.3,67.2,30.04,WNW,286,0.0,0.0,90,0.00,,,0.01,Wunderground v.1.15,2013-08-28 00:50:00,
2013-08-27 20:55:00,70.1,67.0,30.04,WNW,286,0.0,0.0,90,0.00,,,0.01,Wunderground v.1.15,2013-08-28 00:55:00,
2013-08-27 21:00:00,70.0,66.9,30.05,WNW,286,0.0,0.0,90,0.00,,,0.01,Wunderground v.1.15,2013-08-28 01:00:00,
2013-08-27 21:10:00,69.7,66.6,30.05,WNW,286,0.0,0.0,90,0.00,,,0.01,Wunderground v.1.15,2013-08-28 01:10:00,
2013-08-27 21:15:00,69.6,66.5,30.05,WNW,286,0.0,0.0,90,0.00,,,0.01,Wunderground v.1.15,2013-08-28 01:15:00,
2013-08-27 21:30:00,69.3,66.2,30.06,WNW,286,0.0,0.0,90,0.00,,,0.01,Wunderground v.1.15,2013-08-28 01:30:00,
2013-08-27 21:40:00,69.1,66.4,30.06,WNW,286,0.0,0.0,91,0.00,,,0.01,Wunderground v.1.15,2013-08-28 01:40:00,
2013-08-27 21:50:00,68.9,65.8,30.06,WNW,286,0.0,0.0,90,0.00,,,0.01,Wunderground v.1.15,2013-08-28 01:50:00,
2013-08-27 21:55:00,68.9,66.2,30.06,WNW,286,0.0,0.0,91,0.00,,,0.01,Wunderground v.1.15,2013-08-28 01:55:00,
2013-08-27 22:00:00,68.8,66.1,30.07,WNW,286,0.0,0.0,91,0.00,,,0.01,Wunderground v.1.15,2013-08-28 02:00:00,
2013-08-27 22:15:00,68.5,65.8,30.07,WNW,286,0.0,0.0,91,0.00,,,0.01,Wunderground v.1.15,2013-08-28 02:15:00,
2013-08-27 22:25:00,68.4,65.7,30.07,WNW,286,0.0,0.0,91,0.00,,,0.01,Wunderground v.1.15,2013-08-28 02:25:00,
2013-08-27 22:30:00,68.4,65.7,30.07,WNW,286,0.0,0.0,91,0.00,,,0.01,Wunderground v.1.15,2013-08-28 02:30:00,
2013-08-27 22:35:00,68.4,65.7,30.07,WNW,286,0.0,0.0,91,0.00,,,0.01,Wunderground v.1.15,2013-08-28 02:35:00,
2013-08-27 22:40:00,68.4,65.7,30.07,WNW,286,0.0,0.0,91,0.00,,,0.01,Wunderground v.1.15,2013-08-28 02:40:00,
2013-08-27 22:45:00,68.4,66.0,30.07,WNW,286,0.0,0.0,92,0.00,,,0.01,Wunderground v.1.15,2013-08-28 02:45:00,
2013-08-27 22:55:00,68.4,65.7,30.07,WNW,286,0.0,0.0,91,0.00,,,0.01,Wunderground v.1.15,2013-08-28 02:55:00,
2013-08-27 23:00:00,68.3,65.6,30.07,WNW,286,0.0,0.0,91,0.00,,,0.01,Wunderground v.1.15,2013-08-28 03:00:00,
2013-08-27 23:10:00,68.1,65.4,30.07,WNW,286,0.0,0.0,91,0.00,,,0.01,Wunderground v.1.15,2013-08-28 03:10:00,
2013-08-27 23:15:00,68.0,65.3,30.07,WNW,286,0.0,0.0,91,0.00,,,0.01,Wunderground v.1.15,2013-08-28 03:15:00,
2013-08-27 23:25:00,67.7,65.0,30.07,WNW,286,0.0,0.0,91,0.00,,,0.01,Wunderground v.1.15,2013-08-28 03:25:00,
2013-08-27 23:30:00,67.6,64.9,30.07,WNW,286,0.0,0.0,91,0.00,,,0.01,Wunderground v.1.15,2013-08-28 03:30:00,
2013-08-27 23:35:00,67.6,64.9,30.07,WNW,286,0.0,0.0,91,0.00,,,0.01,Wunderground v.1.15,2013-08-28 03:35:00,
2013-08-27 23:40:00,67.5,64.8,30.07,WNW,286,0.0,0.0,91,0.00,,,0.01,Wunderground v.1.15,2013-08-28 03:40:00,
2013-08-27 23:45:00,67.4,64.7,30.07,WNW,286,0.0,0.0,91,0.00,,,0.01,Wunderground v.1.15,2013-08-28 03:45:00,
2013-08-27 23:55:00,67.2,64.5,30.07,WNW,286,0.0,0.0,91,0.00,,,0.01,Wunderground v.1.15,2013-08-28 03:55:00,